Simultaneous Nadir Overpasses (SNOs) Predictions

Prediction of SNOs between METOP-B and TERRA Satellite Orbit:

Table of predicted SNOs for the next 14.0 days since TLE Epoch: 12/15/2018
Index Date (METOP-B) Time (METOP-B) Lat,Lon (METOP-B) SZA (METOP-B ) Date (TERRA) Time (TERRA) Lat,Lon (TERRA) SZA (TERRA ) Distance(km) Time Diff (sec)
1 12/15/2018 21:36:37 81.28, -97.52 107.26 12/15/2018 21:37:05 81.27, -97.43 107.28 1.46 28
2 12/15/2018 22:27:16 -81.28, 70.43 72.67 12/15/2018 22:26:31 -81.29, 70.45 72.69 0.56 45
3 12/18/2018 17:11:01 81.28, -30.74 107.37 12/18/2018 17:11:20 81.28, -30.90 107.36 2.66 19
4 12/18/2018 18:01:41 -81.28, 136.85 72.60 12/18/2018 18:00:46 -81.29, 137.01 72.61 2.89 55
5 12/21/2018 12:45:25 81.28, 35.63 107.37 12/21/2018 12:45:34 81.28, 35.51 107.36 2.04 9
6 12/21/2018 13:36:05 -81.28,-156.73 72.60 12/21/2018 13:35:00 -81.29,-156.55 72.60 3.24 65
7 12/24/2018 07:29:11 -81.27, -66.02 72.78 12/24/2018 07:30:23 -81.26, -65.91 72.74 1.87 72
8 12/24/2018 08:19:50 81.28, 102.00 107.30 12/24/2018 08:19:48 81.29, 102.18 107.33 3.34 2
9 12/24/2018 09:10:14 -81.31, -84.05 71.94 12/24/2018 09:09:00 -81.56, -84.40 71.86 28.08 74
10 12/27/2018 03:03:35 -81.27, 0.77 72.85 12/27/2018 03:04:37 -81.27, 0.66 72.84 1.79 62




NCC Satellite Simultaneous Nadir Overpasses (SNOs) Prediction Service
